DW5686 Weather Reports


time (UTC)temp
F
wind
direction
speed
knots
gust
knots
rain 1hr
in
rain 24hr
in
rain mn
in
humidity
%
barometer
mb
20260508145503 64 32 4.3 8.7 0.00 0.02 0.00 53 1017.8
20260508145025 63 340 1.7 9.6 0.00 0.02 0.00 55 1017.9
20260508144503 63 39 6.1 9.6 0.00 0.02 0.00 48 1018.0
20260508144003 63 21 4.3 7.0 0.00 0.02 0.00 56 1018.1
20260508143525 63 30 2.6 7.0 0.00 0.02 0.00 53 1018.0
20260508143004 63 146 0.9 6.1 0.00 0.02 0.00 48 1018.0
20260508142503 63 52 1.7 6.1 0.00 0.02 0.00 49 1018.1
20260508142003 63 170 0.9 4.3 0.00 0.02 0.00 55 1018.0
20260508141503 62 128 1.7 7.0 0.00 0.02 0.00 60 1018.1
20260508141003 62 19 4.3 7.0 0.00 0.02 0.00 63 1018.0
20260508140525 61 8 0.0 5.2 0.00 0.02 0.00 58 1018.1
20260508140003 61 8 3.5 8.7 0.00 0.02 0.00 64 1018.1
20260508135504 60 39 5.2 9.6 0.00 0.02 0.00 60 1018.1
20260508135003 61 12 6.1 9.6 0.00 0.02 0.00 63 1018.1
20260508134504 60 25 2.6 7.0 0.00 0.02 0.00 63 1018.0
20260508134003 60 26 3.5 6.1 0.00 0.02 0.00 62 1017.9
20260508133502 60 40 2.6 5.2 0.00 0.02 0.00 61 1018.0
20260508133003 59 29 1.7 8.7 0.00 0.02 0.00 69 1018.0
20260508132503 59 26 5.2 8.7 0.00 0.02 0.00 63 1017.8
20260508132004 58 23 5.2 7.8 0.00 0.02 0.00 69 1017.9
20260508131503 58 17 4.3 10.4 0.00 0.02 0.00 68 1017.9
20260508131003 58 38 3.5 10.4 0.00 0.02 0.00 70 1017.9
20260508130504 58 40 2.6 7.0 0.00 0.02 0.00 71 1017.8
20260508130003 57 40 4.3 7.0 0.00 0.02 0.00 69 1017.7
20260508125503 57 42 3.5 6.1 0.00 0.02 0.00 70 1017.7
20260508125003 57 27 2.6 6.1 0.00 0.02 0.00 75 1017.7
20260508124503 56 32 2.6 6.1 0.00 0.02 0.00 75 1017.5
20260508124004 55 30 3.5 8.7 0.00 0.02 0.00 78 1017.5
20260508123503 55 36 5.2 8.7 0.00 0.02 0.00 77 1017.5
20260508123003 54 28 2.6 7.0 0.00 0.02 0.00 81 1017.5
20260508122525 54 34 2.6 8.7 0.00 0.02 0.00 86 1017.3
20260508122003 52 48 4.3 8.7 0.00 0.02 0.00 83 1017.4
20260508121503 52 34 3.5 7.8 0.00 0.02 0.00 91 1017.3
20260508121003 52 20 4.3 7.8 0.00 0.02 0.00 92 1017.2
20260508120524 52 40 3.5 6.1 0.00 0.02 0.00 93 1017.3
20260508120004 52 19 1.7 1.7 0.00 0.02 0.00 93 1017.2
20260508115504 52 19 1.7 2.6 0.00 0.02 0.00 93 1017.2
20260508115003 51 19 0.9 2.6 0.00 0.02 0.00 93 1017.1
20260508114504 51 19 0.0 3.5 0.00 0.02 0.00 93 1017.0
20260508114004 51 19 1.7 3.5 0.00 0.02 0.00 93 1016.8
20260508113524 51 50 1.7 1.7 0.00 0.02 0.00 93 1016.8
20260508113004 51 51 0.0 1.7 0.00 0.02 0.00 95 1016.8
20260508112503 51 51 0.9 1.7 0.00 0.02 0.00 93 1016.6
20260508112003 50 0 0.0 0.9 0.00 0.02 0.00 93 1016.6
20260508111503 50 198 0.0 1.7 0.00 0.02 0.00 93 1016.5
20260508111003 50 0 0.0 1.7 0.00 0.02 0.00 93 1016.4
20260508110504 49 25 0.0 1.7 0.00 0.02 0.00 93 1016.3
20260508110004 49 0 0.0 0.9 0.00 0.02 0.00 93 1016.4
20260508105504 49 25 0.0 0.9 0.00 0.02 0.00 93 1016.3
20260508105003 49 0 0.0 0.0 0.00 0.02 0.00 93 1016.2
20260508104503 49 0 0.0 0.0 0.00 0.02 0.00 93 1016.2
20260508104003 49 0 0.0 0.9 0.00 0.02 0.00 93 1016.1
20260508103503 49 25 0.0 1.7 0.00 0.02 0.00 93 1015.9
20260508103025 49 25 0.9 1.7 0.00 0.02 0.00 93 1015.9
20260508102504 49 0 0.0 0.0 0.00 0.02 0.00 93 1015.6
20260508102003 49 0 0.0 0.9 0.00 0.02 0.00 93 1015.5
20260508101503 50 0 0.0 0.9 0.00 0.02 0.00 93 1015.4
20260508101003 50 25 0.0 0.9 0.00 0.02 0.00 93 1015.4
20260508100504 50 0 0.0 1.7 0.00 0.02 0.00 93 1015.5
20260508100024 50 0 0.0 1.7 0.00 0.02 0.00 93 1015.4
20260508095503 50 25 0.9 1.7 0.00 0.02 0.00 93 1015.3
20260508095004 50 25 1.7 1.7 0.00 0.02 0.00 93 1015.3
20260508094524 50 25 0.0 1.7 0.00 0.02 0.00 93 1015.3
20260508094004 50 25 0.9 2.6 0.00 0.02 0.00 93 1015.2
20260508093524 50 25 1.7 2.6 0.00 0.02 0.00 93 1015.2
20260508093003 51 0 0.0 0.0 0.00 0.02 0.00 93 1015.4
20260508092504 51 0 0.0 1.7 0.00 0.02 0.00 93 1015.2
20260508092004 51 25 0.0 1.7 0.00 0.02 0.00 93 1015.1
20260508091504 51 25 0.9 1.7 0.00 0.02 0.00 93 1015.1
20260508091004 51 0 0.0 0.0 0.00 0.02 0.00 93 1015.1
20260508090504 51 0 0.0 1.7 0.00 0.02 0.00 93 1015.1
20260508090003 51 25 0.0 1.7 0.00 0.02 0.00 93 1015.1
20260508085524 51 25 0.9 1.7 0.00 0.02 0.00 93 1015.0
20260508085003 51 0 0.0 0.0 0.00 0.02 0.00 93 1015.1
20260508084503 51 0 0.0 0.0 0.00 0.02 0.00 93 1015.0
20260508084004 51 0 0.0 0.9 0.00 0.02 0.00 93 1015.1
20260508083524 52 25 0.0 1.7 0.00 0.02 0.00 93 1015.0
20260508083004 52 25 0.0 2.6 0.00 0.02 0.00 93 1014.8
20260508082503 52 0 0.0 2.6 0.00 0.02 0.00 93 1014.7
20260508082003 52 25 0.0 1.7 0.00 0.02 0.00 93 1014.8
20260508081524 52 0 0.0 2.6 0.00 0.02 0.00 93 1014.7
20260508081024 52 25 1.7 2.6 0.00 0.02 0.00 93 1014.7
20260508080503 52 25 1.7 2.6 0.00 0.02 0.00 93 1014.7
20260508080003 52 25 0.9 2.6 0.00 0.02 0.00 93 1014.6
20260508075503 52 0 0.0 0.0 0.00 0.02 0.00 93 1014.5
20260508075003 52 0 0.0 0.0 0.00 0.02 0.00 93 1014.5
20260508074524 52 0 0.0 0.0 0.00 0.02 0.00 93 1014.4
20260508074004 52 0 0.0 0.0 0.00 0.02 0.00 93 1014.5
20260508073503 52 0 0.0 0.0 0.00 0.02 0.00 93 1014.6
20260508073002 52 0 0.0 0.0 0.00 0.02 0.00 93 1014.5
20260508072523 52 0 0.0 0.0 0.00 0.02 0.00 93 1014.5
20260508072003 53 0 0.0 0.0 0.00 0.02 0.00 93 1014.5
20260508071502 52 0 0.0 0.0 0.00 0.02 0.00 93 1014.4
20260508071003 53 0 0.0 0.0 0.00 0.02 0.00 93 1014.4
20260508070502 53 0 0.0 0.0 0.00 0.02 0.00 93 1014.3
20260508070003 53 0 0.0 0.0 0.00 0.02 0.00 93 1014.4
20260508065502 53 0 0.0 0.0 0.00 0.02 0.00 93 1014.3
20260508065023 53 0 0.0 0.0 0.00 0.02 0.00 93 1014.3
20260508064503 53 0 0.0 0.0 0.00 0.02 0.00 93 1014.4
20260508064002 53 0 0.0 0.0 0.00 0.02 0.00 93 1014.2
20260508063502 53 0 0.0 1.7 0.00 0.02 0.00 92 1014.1
20260508063003 54 25 0.0 1.7 0.00 0.02 0.00 93 1014.3
20260508062502 54 25 1.7 1.7 0.00 0.02 0.00 93 1014.4
20260508062002 54 25 0.9 1.7 0.00 0.02 0.00 93 1014.3
20260508061502 54 25 0.0 0.9 0.00 0.02 0.00 93 1014.3
20260508061023 54 0 0.0 0.0 0.00 0.02 0.00 93 1014.3
20260508060502 54 0 0.0 0.0 0.00 0.02 0.00 93 1014.3
20260508060023 54 0 0.0 0.0 0.00 0.02 0.00 92 1014.3
20260508055502 54 0 0.0 0.0 0.00 0.02 0.00 92 1014.5
20260508055002 54 0 0.0 1.7 0.00 0.02 0.00 92 1014.4
20260508054502 54 0 0.0 1.7 0.00 0.02 0.00 93 1014.3
20260508054002 54 0 0.0 1.7 0.00 0.02 0.00 93 1014.3
20260508053502 54 25 0.9 1.7 0.00 0.02 0.00 93 1014.3
20260508053003 54 25 0.0 0.9 0.00 0.02 0.00 92 1014.4
20260508052502 54 0 0.0 0.0 0.00 0.02 0.00 92 1014.2
20260508052023 54 0 0.0 1.7 0.00 0.02 0.00 92 1014.3
20260508051502 54 25 0.9 1.7 0.00 0.02 0.00 92 1014.4
20260508051024 54 25 0.9 1.7 0.00 0.02 0.00 92 1014.2
20260508050503 55 0 0.0 1.7 0.00 0.02 0.00 92 1014.2
20260508050023 55 25 0.0 1.7 0.00 0.02 0.00 92 1014.1
20260508045523 55 25 0.9 1.7 0.00 0.02 0.00 92 1014.0
20260508045002 55 25 0.0 0.9 0.00 0.02 0.00 92 1014.0
20260508044504 55 25 0.0 0.9 0.00 0.02 0.00 92 1013.9
20260508044002 55 0 0.0 0.9 0.00 0.02 0.00 92 1013.8
20260508043502 55 0 0.0 0.9 0.00 0.02 0.00 92 1013.9
20260508043023 55 25 0.0 0.9 0.00 0.02 0.00 92 1013.8
20260508042523 56 25 0.0 1.7 0.00 0.02 0.00 92 1013.9
20260508042023 56 25 0.0 1.7 0.00 0.02 0.00 92 1013.8
20260508041502 56 25 0.9 1.7 0.00 0.02 0.00 92 1013.7
20260508041003 56 25 0.0 1.7 0.00 0.02 0.00 92 1013.6
20260508040524 56 25 0.9 1.7 0.00 0.02 0.00 92 1013.8
20260508040004 56 25 0.0 0.9 0.00 0.02 0.00 92 1013.7
20260508035503 56 0 0.0 0.0 0.00 0.02 0.02 92 1013.7
20260508035002 56 0 0.0 0.0 0.00 0.02 0.02 92 1013.7
20260508034524 56 0 0.0 0.9 0.00 0.02 0.02 92 1013.8
20260508034003 56 0 0.0 1.7 0.00 0.02 0.02 92 1013.6
20260508033502 56 25 0.9 1.7 0.00 0.02 0.02 92 1013.6
20260508033002 57 25 1.7 1.7 0.00 0.02 0.02 92 1013.6
20260508032523 57 0 0.0 0.9 0.00 0.02 0.02 92 1013.5
20260508032003 57 0 0.0 0.9 0.00 0.02 0.02 91 1013.6
20260508031502 57 25 0.0 1.7 0.00 0.02 0.02 91 1013.6
20260508031003 57 25 0.0 1.7 0.00 0.02 0.02 91 1013.6
20260508030524 57 25 0.9 1.7 0.00 0.02 0.02 91 1013.5
20260508030002 57 0 0.0 0.9 0.00 0.02 0.02 91 1013.5
20260508025523 57 25 0.0 1.7 0.00 0.02 0.02 91 1013.5
20260508025002 57 25 0.0 1.7 0.00 0.02 0.02 91 1013.4
20260508024523 57 25 0.9 1.7 0.00 0.02 0.02 91 1013.4
20260508024002 57 0 0.0 1.7 0.00 0.02 0.02 91 1013.3
20260508023502 57 25 0.9 1.7 0.00 0.02 0.02 91 1013.2
20260508023002 58 25 0.0 2.6 0.00 0.02 0.02 89 1013.2
20260508022503 58 25 0.0 3.5 0.00 0.02 0.02 89 1013.2
20260508022003 58 25 1.7 6.1 0.00 0.02 0.02 89 1013.1
20260508021523 58 27 3.5 6.1 0.00 0.02 0.02 89 1013.1
20260508021023 58 16 0.9 4.3 0.00 0.02 0.02 89 1013.0
20260508020503 58 17 2.6 4.3 0.00 0.02 0.02 89 1012.8
20260508020024 58 30 1.7 5.2 0.00 0.02 0.02 89 1012.8
20260508015502 58 42 2.6 5.2 0.00 0.02 0.02 89 1012.7
20260508015003 58 36 1.7 4.3 0.00 0.02 0.02 89 1012.7
20260508014503 58 36 1.7 4.3 0.00 0.02 0.02 89 1012.6
20260508014003 58 36 1.7 3.5 0.00 0.02 0.02 89 1012.3
20260508013502 58 30 1.7 7.8 0.00 0.02 0.02 89 1012.3
20260508013023 58 41 3.5 7.8 0.00 0.02 0.02 89 1012.3
20260508012523 58 33 5.2 7.8 0.00 0.02 0.02 89 1012.0
20260508012003 58 23 3.5 7.8 0.00 0.02 0.02 89 1012.2
20260508011503 58 31 3.5 8.7 0.00 0.02 0.02 88 1012.1
20260508011023 58 27 5.2 8.7 0.00 0.02 0.02 88 1012.0
20260508010503 58 35 3.5 10.4 0.00 0.02 0.02 88 1011.8
20260508010003 58 27 5.2 10.4 0.00 0.02 0.02 89 1011.6
20260508005502 58 38 7.0 9.6 0.00 0.02 0.02 88 1011.9
20260508005003 58 29 4.3 7.0 0.00 0.02 0.02 88 1011.9
20260508004502 58 9 1.7 6.1 0.00 0.02 0.02 89 1011.7
20260508004003 58 23 2.6 6.1 0.00 0.02 0.02 89 1011.4
20260508003502 58 15 1.7 13.9 0.00 0.02 0.02 89 1011.1
20260508003004 58 25 5.2 13.9 0.00 0.02 0.02 89 1010.9
20260508002502 58 37 7.0 13.0 0.00 0.02 0.02 89 1010.9
20260508002003 58 4 3.5 10.4 0.00 0.02 0.02 89 1011.1
20260508001524 58 36 7.0 10.4 0.00 0.02 0.02 89 1010.8
20260508001004 59 21 7.0 10.4 0.00 0.02 0.02 89 1010.7
20260508000502 59 22 5.2 13.9 0.00 0.02 0.02 89 1010.6
20260508000003 59 358 5.2 13.9 0.00 0.02 0.02 89 1010.7
20260507235502 59 35 5.2 12.2 0.00 0.02 0.02 89 1010.6
20260507235004 59 11 5.2 15.6 0.00 0.02 0.02 89 1010.4
20260507234503 59 16 7.8 15.6 0.00 0.02 0.02 89 1009.5
20260507234004 59 27 7.0 13.9 0.00 0.02 0.02 89 1009.6
20260507233504 59 19 5.2 13.9 0.00 0.02 0.02 89 1009.6
20260507233004 59 29 9.6 13.9 0.00 0.02 0.02 89 1009.5
20260507232503 59 17 7.8 13.9 0.00 0.02 0.02 89 1009.1
20260507232004 59 23 10.4 17.4 0.00 0.02 0.02 89 1009.2
20260507231503 60 24 7.0 17.4 0.00 0.02 0.02 89 1009.5
20260507231004 60 22 10.4 17.4 0.00 0.02 0.02 89 1009.4
20260507230504 60 20 10.4 19.1 0.00 0.02 0.02 89 1009.3
20260507230004 60 24 11.3 19.1 0.00 0.02 0.02 89 1009.2
20260507225523 60 32 11.3 16.5 0.00 0.02 0.02 89 1008.7
20260507225002 60 11 6.1 22.6 0.00 0.02 0.02 88 1008.9
20260507224503 61 20 12.2 23.5 0.00 0.02 0.02 87 1008.2
20260507224002 62 21 14.8 23.5 0.00 0.02 0.02 86 1008.2
20260507223524 63 22 10.4 23.5 0.00 0.02 0.02 83 1008.2
20260507223004 64 29 11.3 23.5 0.00 0.02 0.02 81 1008.0
20260507222504 64 25 9.6 23.5 0.00 0.02 0.02 81 1008.3
20260507222002 65 19 13.9 23.5 0.00 0.02 0.02 79 1008.0
20260507221502 65 21 10.4 23.5 0.00 0.02 0.02 79 1008.0
20260507221003 65 22 9.6 24.3 0.00 0.02 0.02 79 1007.9
20260507220503 66 20 13.9 24.3 0.00 0.02 0.02 76 1007.9
20260507220003 70 21 9.6 20.0 0.00 0.02 0.02 71 1007.7
20260507215503 74 25 13.0 20.0 0.00 0.02 0.02 63 1007.6
20260507215002 77 219 1.7 10.4 0.00 0.02 0.02 62 1007.0
20260507214502 77 196 4.3 14.8 0.00 0.02 0.02 60 1006.8
20260507214002 77 230 4.3 14.8 0.00 0.02 0.02 60 1006.8
20260507213524 78 216 3.5 13.0 0.00 0.02 0.02 61 1006.5
20260507213003 78 194 1.7 13.0 0.00 0.02 0.02 59 1006.4
20260507212503 78 218 5.2 13.0 0.00 0.02 0.02 60 1006.2
20260507212003 78 211 4.3 14.8 0.00 0.02 0.02 59 1006.2
20260507211502 78 221 4.3 14.8 0.00 0.02 0.02 60 1006.2
20260507211003 77 177 7.0 18.2 0.00 0.02 0.02 61 1006.3
20260507210503 76 226 7.0 18.2 0.00 0.02 0.02 61 1006.3
20260507210003 76 197 4.3 8.7 0.00 0.02 0.02 60 1006.3
20260507205504 76 233 3.5 10.4 0.00 0.02 0.02 61 1006.2
20260507205025 76 206 3.5 10.4 0.00 0.02 0.02 61 1006.3
20260507204503 76 241 2.6 8.7 0.00 0.02 0.02 61 1006.6
20260507204004 77 202 1.7 8.7 0.00 0.02 0.02 62 1006.5
20260507203502 78 176 4.3 10.4 0.00 0.02 0.02 59 1006.4
20260507203003 78 187 4.3 10.4 0.01 0.02 0.02 57 1006.4
20260507202504 78 231 4.3 17.4 0.01 0.02 0.02 59 1006.5
20260507202004 77 216 5.2 17.4 0.01 0.02 0.02 59 1006.6
20260507201503 78 215 4.3 11.3 0.01 0.02 0.02 59 1006.8
20260507201003 78 179 3.5 12.2 0.02 0.02 0.02 60 1006.7
20260507200524 78 177 5.2 12.2 0.02 0.02 0.02 60 1006.8
20260507200003 78 214 3.5 10.4 0.02 0.02 0.02 58 1006.7
20260507195504 79 222 3.5 9.6 0.02 0.02 0.02 57 1006.8
20260507195023 78 203 3.5 9.6 0.02 0.02 0.02 60 1007.0
20260507194503 78 242 1.7 7.8 0.02 0.02 0.02 60 1007.0
20260507194002 78 177 3.5 7.0 0.02 0.02 0.02 59 1007.1
20260507193524 78 222 2.6 6.1 0.02 0.02 0.02 62 1007.1
20260507193024 77 224 2.6 10.4 0.01 0.01 0.01 61 1007.3
20260507192503 76 232 5.2 10.4 0.01 0.01 0.01 61 1007.5
20260507192003 76 204 3.5 9.6 0.01 0.01 0.01 62 1007.5
20260507191503 77 202 2.6 10.4 0.01 0.01 0.01 59 1007.7
20260507191003 78 211 3.5 10.4 0.00 0.00 0.00 59 1007.6
20260507190524 78 255 2.6 9.6 0.00 0.00 0.00 63 1007.7
20260507190004 76 250 2.6 9.6 0.00 0.00 0.00 65 1007.8
20260507185503 75 278 2.6 12.2 0.00 0.00 0.00 65 1007.8
20260507185003 76 220 2.6 12.2 0.00 0.00 0.00 65 1007.7
20260507184525 76 217 2.6 10.4 0.00 0.00 0.00 68 1007.8
20260507184004 76 222 4.3 10.4 0.00 0.00 0.00 64 1007.8
20260507183524 76 242 0.9 8.7 0.00 0.00 0.00 67 1007.6
20260507183002 75 197 4.3 9.6 0.00 0.00 0.00 65 1007.8
20260507182524 75 196 6.1 9.6 0.00 0.00 0.00 64 1007.8
20260507182003 75 246 2.6 7.0 0.00 0.00 0.00 70 1007.9
20260507181502 75 238 4.3 7.0 0.00 0.00 0.00 68 1007.8
20260507181024 74 220 2.6 7.0 0.00 0.00 0.00 69 1007.7
20260507180502 74 206 2.6 7.0 0.00 0.00 0.00 70 1007.8
20260507180002 74 212 3.5 6.1 0.00 0.00 0.00 71 1007.9
20260507175503 74 31 1.7 7.0 0.00 0.00 0.00 75 1008.0
20260507175003 72 214 2.6 7.8 0.00 0.00 0.00 71 1008.2
20260507174503 72 234 3.5 8.7 0.00 0.00 0.00 74 1008.3
20260507174003 73 200 3.5 8.7 0.00 0.00 0.00 74 1008.4
20260507173503 73 201 3.5 6.1 0.00 0.00 0.00 78 1008.6
20260507173002 72 197 1.7 6.1 0.00 0.00 0.00 81 1008.6
20260507172504 71 309 0.9 4.3 0.00 0.00 0.00 82 1008.7
20260507172003 70 233 1.7 4.3 0.00 0.00 0.00 81 1008.7
20260507171503 70 254 0.9 6.1 0.00 0.00 0.00 82 1008.6
20260507171002 69 222 2.6 6.1 0.00 0.00 0.00 82 1008.4
20260507170504 69 237 1.7 6.1 0.00 0.00 0.00 84 1008.2
20260507170003 68 250 0.9 6.1 0.00 0.00 0.00 84 1008.3
20260507165503 68 205 2.6 6.1 0.00 0.00 0.00 86 1008.9
20260507165004 68 208 2.6 7.0 0.00 0.00 0.00 84 1008.8
20260507164503 68 199 0.9 7.0 0.00 0.00 0.00 84 1008.8
20260507164004 69 115 1.7 6.1 0.00 0.00 0.00 86 1008.7
20260507163504 69 227 1.7 6.1 0.00 0.00 0.00 86 1008.8
20260507163003 69 225 1.7 6.1 0.00 0.00 0.00 86 1008.7
20260507162503 69 172 2.6 10.4 0.00 0.00 0.00 89 1008.7
20260507162024 68 233 2.6 10.4 0.00 0.00 0.00 89 1009.2
20260507161523 67 212 3.5 6.1 0.00 0.00 0.00 89 1009.3
20260507161003 67 209 3.5 6.1 0.00 0.00 0.00 91 1009.4
20260507160503 67 203 1.7 5.2 0.00 0.00 0.00 92 1009.3
20260507160004 66 217 1.7 6.1 0.00 0.00 0.00 92 1009.3
20260507155504 66 249 1.7 7.0 0.00 0.00 0.00 92 1009.2
20260507155004 66 209 3.5 7.0 0.00 0.00 0.00 92 1009.0
20260507154503 66 212 1.7 5.2 0.00 0.00 0.00 92 1008.9
20260507154003 66 240 0.9 6.1 0.00 0.00 0.00 92 1008.6
20260507153504 66 232 2.6 6.1 0.00 0.00 0.00 93 1008.5
20260507153004 66 194 1.7 4.3 0.00 0.00 0.00 93 1008.2
20260507152504 66 177 2.6 4.3 0.00 0.00 0.00 93 1008.1
20260507152004 66 71 1.7 2.6 0.00 0.00 0.00 93 1008.0
20260507151503 66 71 1.7 2.6 0.00 0.00 0.00 93 1007.8
20260507151003 65 70 0.0 3.5 0.00 0.00 0.00 93 1008.0
20260507150503 65 83 2.6 3.5 0.00 0.00 0.00 93 1008.1
20260507150003 65 181 0.9 1.7 0.00 0.00 0.00 93 1008.4